Time,TemperatureF,DewpointF,PressureIn,WindDirection,WindDirectionDegrees,WindSpeedMPH,WindSpeedGustMPH,Humidity,HourlyPrecipIn,Conditions,Clouds,dailyrainin,SoftwareType,DateUTC
2013-05-26 00:00:00,44.6,44.1,29.81,SSE,157,0.0,-999.0,98,-99.99,,,0.00,Acu-Link.com,2013-05-26 07:00:00,
2013-05-26 00:16:00,44.6,44.1,29.81,ENE,67,0.0,-999.0,98,-99.99,,,0.00,Acu-Link.com,2013-05-26 07:16:00,
2013-05-26 00:31:00,44.6,44.1,29.81,ENE,67,0.0,-999.0,98,-99.99,,,0.00,Acu-Link.com,2013-05-26 07:31:00,
2013-05-26 00:46:00,44.6,44.1,29.81,ENE,67,0.0,-999.0,98,-99.99,,,0.00,Acu-Link.com,2013-05-26 07:46:00,
2013-05-26 01:01:00,44.6,44.1,29.81,NE,45,0.0,-999.0,98,-99.99,,,0.00,Acu-Link.com,2013-05-26 08:01:00,
2013-05-26 01:16:00,44.6,44.1,29.82,NE,45,0.0,-999.0,98,-99.99,,,0.00,Acu-Link.com,2013-05-26 08:16:00,
2013-05-26 01:31:00,44.6,44.1,29.82,ENE,67,0.0,-999.0,98,-99.99,,,0.00,Acu-Link.com,2013-05-26 08:31:00,
2013-05-26 01:46:00,44.6,44.1,29.82,NE,45,0.0,-999.0,98,-99.99,,,0.00,Acu-Link.com,2013-05-26 08:46:00,
2013-05-26 02:01:00,44.6,44.1,29.81,NE,45,0.0,-999.0,98,-99.99,,,0.00,Acu-Link.com,2013-05-26 09:01:00,
2013-05-26 02:16:00,44.6,44.1,29.82,NNW,337,0.0,-999.0,98,-99.99,,,0.00,Acu-Link.com,2013-05-26 09:16:00,
2013-05-26 02:31:00,42.8,42.3,29.82,NE,45,0.0,-999.0,98,-99.99,,,0.00,Acu-Link.com,2013-05-26 09:31:00,
2013-05-26 02:47:00,42.8,42.3,29.82,NE,45,0.0,-999.0,98,-99.99,,,0.00,Acu-Link.com,2013-05-26 09:47:00,
2013-05-26 03:02:00,42.8,42.3,29.82,NE,45,0.0,-999.0,98,-99.99,,,0.00,Acu-Link.com,2013-05-26 10:02:00,
2013-05-26 03:17:00,42.8,42.3,29.82,NE,45,0.0,-999.0,98,-99.99,,,0.00,Acu-Link.com,2013-05-26 10:17:00,
2013-05-26 03:32:00,42.8,42.3,29.82,NE,45,0.0,-999.0,98,-99.99,,,0.00,Acu-Link.com,2013-05-26 10:32:00,
2013-05-26 03:47:00,42.8,42.3,29.82,ESE,112,0.0,-999.0,98,-99.99,,,0.00,Acu-Link.com,2013-05-26 10:47:00,
2013-05-26 04:02:00,42.8,42.3,29.82,SSE,157,0.0,-999.0,98,-99.99,,,0.00,Acu-Link.com,2013-05-26 11:02:00,
2013-05-26 04:17:00,42.8,42.3,29.82,SSE,157,0.0,-999.0,98,-99.99,,,0.00,Acu-Link.com,2013-05-26 11:17:00,
2013-05-26 04:32:00,42.8,42.3,29.82,East,90,0.0,-999.0,98,-99.99,,,0.00,Acu-Link.com,2013-05-26 11:32:00,
2013-05-26 04:47:00,42.8,42.3,29.82,East,90,0.0,-999.0,98,-99.99,,,0.00,Acu-Link.com,2013-05-26 11:47:00,
2013-05-26 05:02:00,42.8,42.3,29.82,East,90,0.0,-999.0,98,-99.99,,,0.00,Acu-Link.com,2013-05-26 12:02:00,
2013-05-26 05:17:00,42.8,42.3,29.82,ESE,112,0.0,-999.0,98,-99.99,,,0.00,Acu-Link.com,2013-05-26 12:17:00,
2013-05-26 05:33:00,42.8,42.3,29.82,ESE,112,0.0,-999.0,98,-99.99,,,0.00,Acu-Link.com,2013-05-26 12:33:00,
2013-05-26 05:48:00,42.8,42.3,29.82,SSE,157,0.0,-999.0,98,-99.99,,,0.00,Acu-Link.com,2013-05-26 12:48:00,
2013-05-26 06:03:00,42.8,42.3,29.82,SE,135,0.0,-999.0,98,-99.99,,,0.00,Acu-Link.com,2013-05-26 13:03:00,
2013-05-26 06:18:00,42.8,42.3,29.81,SE,135,0.0,-999.0,98,-99.99,,,0.00,Acu-Link.com,2013-05-26 13:18:00,
2013-05-26 06:33:00,42.8,42.3,29.81,ESE,112,0.0,-999.0,98,-99.99,,,0.00,Acu-Link.com,2013-05-26 13:33:00,
2013-05-26 06:48:00,42.8,42.3,29.81,SE,135,0.0,-999.0,98,-99.99,,,0.00,Acu-Link.com,2013-05-26 13:48:00,
2013-05-26 07:03:00,42.8,42.3,29.82,ESE,112,0.0,-999.0,98,-99.99,,,0.00,Acu-Link.com,2013-05-26 14:03:00,
2013-05-26 07:19:00,44.6,44.1,29.82,NNE,22,0.0,-999.0,98,-99.99,,,0.00,Acu-Link.com,2013-05-26 14:19:00,
2013-05-26 07:34:00,44.6,44.1,29.82,ESE,112,0.0,-999.0,98,-99.99,,,0.00,Acu-Link.com,2013-05-26 14:34:00,
2013-05-26 07:49:00,44.6,44.1,29.82,SE,135,1.1,-999.0,98,-99.99,,,0.00,Acu-Link.com,2013-05-26 14:49:00,
2013-05-26 08:04:00,46.4,44.8,29.82,SSE,157,0.0,-999.0,94,-99.99,,,0.00,Acu-Link.com,2013-05-26 15:04:00,
2013-05-26 08:19:00,46.4,43.6,29.82,ESE,112,0.0,-999.0,90,-99.99,,,0.00,Acu-Link.com,2013-05-26 15:19:00,
2013-05-26 08:34:00,46.4,43.3,29.82,SW,225,0.0,-999.0,89,-99.99,,,0.00,Acu-Link.com,2013-05-26 15:34:00,
2013-05-26 08:50:00,48.2,44.5,29.82,ESE,112,0.0,-999.0,87,-99.99,,,0.00,Acu-Link.com,2013-05-26 15:50:00,
2013-05-26 09:05:00,50.0,44.4,29.82,East,90,2.0,-999.0,81,-99.99,,,0.00,Acu-Link.com,2013-05-26 16:05:00,
2013-05-26 09:20:00,50.0,44.1,29.81,ENE,67,3.1,-999.0,80,-99.99,,,0.00,Acu-Link.com,2013-05-26 16:20:00,
2013-05-26 09:35:00,50.0,42.7,29.81,SE,135,3.1,-999.0,76,-99.99,,,0.00,Acu-Link.com,2013-05-26 16:35:00,
2013-05-26 09:50:00,51.8,44.1,29.81,East,90,2.7,-999.0,75,-99.99,,,0.00,Acu-Link.com,2013-05-26 16:50:00,
2013-05-26 10:05:00,51.8,44.1,29.81,ENE,67,2.0,-999.0,75,-99.99,,,0.00,Acu-Link.com,2013-05-26 17:05:00,
2013-05-26 10:20:00,50.0,40.6,29.81,SSE,157,1.6,-999.0,70,-99.99,,,0.00,Acu-Link.com,2013-05-26 17:20:00,
2013-05-26 10:35:00,53.6,42.5,29.81,SSW,202,2.7,-999.0,66,-99.99,,,0.00,Acu-Link.com,2013-05-26 17:35:00,
2013-05-26 10:50:00,53.6,42.5,29.80,NNW,337,3.1,-999.0,66,-99.99,,,0.00,Acu-Link.com,2013-05-26 17:50:00,
2013-05-26 11:05:00,55.4,42.2,29.80,NNE,22,0.0,-999.0,61,-99.99,,,0.00,Acu-Link.com,2013-05-26 18:05:00,
2013-05-26 11:21:00,59.0,43.3,29.79,ESE,112,4.7,-999.0,56,-99.99,,,0.00,Acu-Link.com,2013-05-26 18:21:00,
2013-05-26 11:36:00,57.2,40.2,29.79,SSE,157,2.7,-999.0,53,-99.99,,,0.00,Acu-Link.com,2013-05-26 18:36:00,
2013-05-26 11:51:00,59.0,40.9,29.79,ENE,67,3.1,-999.0,51,-99.99,,,0.00,Acu-Link.com,2013-05-26 18:51:00,
2013-05-26 12:06:00,60.8,41.0,29.79,South,180,3.1,-999.0,48,-99.99,,,0.00,Acu-Link.com,2013-05-26 19:06:00,
2013-05-26 12:21:00,60.8,39.9,29.79,ESE,112,2.0,-999.0,46,-99.99,,,0.00,Acu-Link.com,2013-05-26 19:21:00,
2013-05-26 12:36:00,60.8,39.3,29.79,ESE,112,2.7,-999.0,45,-99.99,,,0.00,Acu-Link.com,2013-05-26 19:36:00,
2013-05-26 12:51:00,60.8,39.3,29.78,SSE,157,3.6,-999.0,45,-99.99,,,0.00,Acu-Link.com,2013-05-26 19:51:00,
2013-05-26 13:06:00,60.8,38.8,29.78,ESE,112,2.7,-999.0,44,-99.99,,,0.00,Acu-Link.com,2013-05-26 20:06:00,
2013-05-26 13:21:00,59.0,38.8,29.78,South,180,3.1,-999.0,47,-99.99,,,0.00,Acu-Link.com,2013-05-26 20:21:00,
2013-05-26 13:36:00,60.8,40.4,29.78,ENE,67,2.0,-999.0,47,-99.99,,,0.00,Acu-Link.com,2013-05-26 20:36:00,
2013-05-26 13:51:00,59.0,38.3,29.77,East,90,4.0,-999.0,46,-99.99,,,0.00,Acu-Link.com,2013-05-26 20:51:00,
2013-05-26 14:06:00,60.8,39.9,29.76,NE,45,2.7,-999.0,46,-99.99,,,0.00,Acu-Link.com,2013-05-26 21:06:00,
2013-05-26 14:22:00,62.6,42.6,29.76,ENE,67,2.0,-999.0,48,-99.99,,,0.00,Acu-Link.com,2013-05-26 21:22:00,
2013-05-26 14:37:00,62.6,41.0,29.76,ESE,112,3.6,-999.0,45,-99.99,,,0.00,Acu-Link.com,2013-05-26 21:37:00,
2013-05-26 14:52:00,59.0,40.4,29.75,SE,135,2.0,-999.0,50,-99.99,,,0.00,Acu-Link.com,2013-05-26 21:52:00,
2013-05-26 15:08:00,59.0,40.4,29.75,ESE,112,2.0,-999.0,50,-99.99,,,0.00,Acu-Link.com,2013-05-26 22:08:00,
2013-05-26 15:23:00,59.0,43.8,29.76,SSE,157,2.7,-999.0,57,-99.99,,,0.00,Acu-Link.com,2013-05-26 22:23:00,
2013-05-26 15:38:00,59.0,42.9,29.76,East,90,1.1,-999.0,55,-99.99,,,0.00,Acu-Link.com,2013-05-26 22:38:00,
2013-05-26 15:53:00,57.2,41.6,29.77,ESE,112,1.1,-999.0,56,-99.99,,,0.00,Acu-Link.com,2013-05-26 22:53:00,
2013-05-26 16:08:00,57.2,42.1,29.76,South,180,2.7,-999.0,57,-99.99,,,0.00,Acu-Link.com,2013-05-26 23:08:00,
2013-05-26 16:23:00,55.4,41.7,29.77,SSE,157,3.1,-999.0,60,-99.99,,,0.00,Acu-Link.com,2013-05-26 23:23:00,
2013-05-26 16:38:00,53.6,42.5,29.79,ESE,112,2.7,-999.0,66,-99.99,,,0.00,Acu-Link.com,2013-05-26 23:38:00,
2013-05-26 16:53:00,50.0,43.4,29.79,SE,135,2.0,-999.0,78,-99.99,,,0.00,Acu-Link.com,2013-05-26 23:53:00,
2013-05-26 17:08:00,50.0,44.4,29.80,SSE,157,0.0,-999.0,81,-99.99,,,0.02,Acu-Link.com,2013-05-27 00:08:00,
2013-05-26 17:23:00,50.0,45.4,29.80,ENE,67,0.0,-999.0,84,-99.99,,,0.02,Acu-Link.com,2013-05-27 00:23:00,
2013-05-26 17:38:00,50.0,45.0,29.79,ESE,112,1.6,-999.0,83,-99.99,,,0.02,Acu-Link.com,2013-05-27 00:38:00,
2013-05-26 17:53:00,51.8,44.8,29.78,ESE,112,0.0,-999.0,77,-99.99,,,0.02,Acu-Link.com,2013-05-27 00:53:00,
2013-05-26 18:08:00,53.6,45.5,29.78,ESE,112,1.1,-999.0,74,-99.99,,,0.02,Acu-Link.com,2013-05-27 01:08:00,
2013-05-26 18:23:00,53.6,46.2,29.78,ESE,112,1.6,-999.0,76,-99.99,,,0.02,Acu-Link.com,2013-05-27 01:23:00,
2013-05-26 18:39:00,51.8,44.8,29.78,SSE,157,1.1,-999.0,77,-99.99,,,0.02,Acu-Link.com,2013-05-27 01:39:00,
2013-05-26 18:54:00,51.8,46.5,29.78,ESE,112,2.0,-999.0,82,-99.99,,,0.02,Acu-Link.com,2013-05-27 01:54:00,
2013-05-26 19:09:00,50.0,46.3,29.78,ESE,112,3.1,-999.0,87,-99.99,,,0.04,Acu-Link.com,2013-05-27 02:09:00,
2013-05-26 19:24:00,48.2,45.4,29.79,SE,135,2.7,-999.0,90,-99.99,,,0.06,Acu-Link.com,2013-05-27 02:24:00,
2013-05-26 19:39:00,48.2,45.7,29.79,ENE,67,1.6,-999.0,91,-99.99,,,0.09,Acu-Link.com,2013-05-27 02:39:00,
2013-05-26 19:54:00,46.4,43.9,29.78,SSE,157,0.0,-999.0,91,-99.99,,,0.11,Acu-Link.com,2013-05-27 02:54:00,
2013-05-26 20:09:00,46.4,45.9,29.78,ESE,112,0.0,-999.0,98,-99.99,,,0.12,Acu-Link.com,2013-05-27 03:09:00,
2013-05-26 20:25:00,46.4,45.9,29.78,SSW,202,1.6,-999.0,98,-99.99,,,0.13,Acu-Link.com,2013-05-27 03:25:00,
2013-05-26 20:40:00,46.4,45.9,29.79,SE,135,0.0,-999.0,98,-99.99,,,0.13,Acu-Link.com,2013-05-27 03:40:00,
2013-05-26 20:55:00,46.4,45.9,29.78,NE,45,0.0,-999.0,98,-99.99,,,0.13,Acu-Link.com,2013-05-27 03:55:00,
2013-05-26 21:10:00,46.4,45.9,29.78,NE,45,0.0,-999.0,98,-99.99,,,0.13,Acu-Link.com,2013-05-27 04:10:00,
2013-05-26 21:25:00,46.4,45.9,29.78,NNE,22,0.0,-999.0,98,-99.99,,,0.13,Acu-Link.com,2013-05-27 04:25:00,
2013-05-26 21:40:00,46.4,45.9,29.79,West,270,0.0,-999.0,98,-99.99,,,0.13,Acu-Link.com,2013-05-27 04:40:00,
2013-05-26 21:55:00,46.4,45.9,29.79,South,180,0.0,-999.0,98,-99.99,,,0.13,Acu-Link.com,2013-05-27 04:55:00,
2013-05-26 22:11:00,46.4,45.9,29.78,SSW,202,0.0,-999.0,98,-99.99,,,0.13,Acu-Link.com,2013-05-27 05:11:00,
2013-05-26 22:26:00,46.4,45.9,29.78,SE,135,0.0,-999.0,98,-99.99,,,0.13,Acu-Link.com,2013-05-27 05:26:00,
2013-05-26 22:41:00,44.6,44.1,29.79,SSE,157,0.0,-999.0,98,-99.99,,,0.13,Acu-Link.com,2013-05-27 05:41:00,
2013-05-26 22:56:00,44.6,44.1,29.79,South,180,0.0,-999.0,98,-99.99,,,0.13,Acu-Link.com,2013-05-27 05:56:00,
2013-05-26 23:11:00,44.6,44.1,29.79,ENE,67,0.0,-999.0,98,-99.99,,,0.13,Acu-Link.com,2013-05-27 06:11:00,
2013-05-26 23:27:00,44.6,44.1,29.79,NE,45,0.0,-999.0,98,-99.99,,,0.13,Acu-Link.com,2013-05-27 06:27:00,
2013-05-26 23:42:00,44.6,44.1,29.79,NNW,337,0.0,-999.0,98,-99.99,,,0.13,Acu-Link.com,2013-05-27 06:42:00,
2013-05-26 23:57:00,44.6,44.1,29.79,East,90,0.0,-999.0,98,-99.99,,,0.13,Acu-Link.com,2013-05-27 06:57:00,